Location: Agendoh
(31.0664°N, 8.9343°W)
Time: 07:34:56
(UTC+00:00)

H-2A R/B - Pass Details

Date: 06 December 2021
Orbit: 496 x 536 km, 97.3° (Epoch: 20 January)

Event Time Altitude Azimuth Distance (km) Brightness Sun altitude
Exits shadow 06:22:34 18° 303° (WNW) 1,306 4.1 -12.3°
Maximum altitude 06:23:17 19° 288° (WNW) 1,268 4.0 -12.1°
Drops below altitude 10° 06:26:00 10° 242° (WSW) 1,747 5.0 -11.6°
Sets 06:28:32 0° 224° (SW) 2,639 6.1 -11.0°
